User: anonymous   Login
Location: Unspecified
(0.0000°N, 0.0000°E)
Time: 19:04:53
(UTC+00:00)
Language:

Alexis - Orbit

View from above orbital plane
View from above orbital plane
View from above satellite
View from above satellite

Ground track
Ground track

The orbit data is extracted from the following two-line orbital elements,

1 22638U 93026A   14195.23738836 0.00000550  00000-0  19757-3 0    06
2 22638  69.9196 149.2705 0060111 359.1065   0.8935 14.32770503    06
Epoch (UTC): 14 July 2014 05:41:50
Eccentricity: 0.0060111
inclination: 69.9196°
perigee height: 739 km
apogee height: 825 km
right ascension of ascending node: 149.2705°
argument of perigee: 359.1065°
revolutions per day: 14.32770503
mean anomaly at epoch: 0.8935°
orbit number at epoch: 0

The dashed part of the orbit path shows where the satellite is in the earth's shadow,  

DLR